Orbital Elements at Epoch 2459200.5 (2020-Dec-17.0) TDB
Reference: JPL 22 (heliocentric ecliptic J2000)
Element | Value | Uncertainty (1-sigma) | Units |
e | .2713719909005739 | 4.7821e-08 | |
a | 2.767762887992387 | 1.5681e-08 | au |
q | 2.016669562737171 | 1.2742e-07 | au |
i | 9.046619584272747 | 4.7334e-06 | deg |
node | 127.6739576030288 | 2.8567e-05 | deg |
peri | 201.5376734755305 | 2.944e-05 | deg |
M | 198.3785546439564 | 9.3841e-06 | deg |
tp | 2459955.571772492325 (2023-Jan-11.07177249) | 4.7902e-05 | TDB |
period | 1681.867387699811 4.60 | 1.4293e-05 3.913e-08 | d yr |
n | .2140477915398255 | 1.819e-09 | deg/d |
Q | 3.518856213247604 | 1.9936e-08 | au |
|
| | Orbit Determination Parameters
Additional Information
|